| time (UTC) | temp F | wind direction | speed MPH | gust MPH | rain 1hr in | rain 24hr in | rain mn in | humidity % | barometer mb |
| 20260509205021 | 64 | 35 | 2.0 | 4.0 | 0.00 | 0.00 | 0.00 | 68 | 1016.4 |
| 20260509204520 | 64 | 13 | 2.0 | 4.0 | 0.00 | 0.00 | 0.00 | 68 | 1016.4 |
| 20260509204021 | 64 | 30 | 2.0 | 4.0 | 0.00 | 0.00 | 0.00 | 67 | 1016.4 |
| 20260509203520 | 64 | 58 | 1.0 | 5.0 | 0.00 | 0.00 | 0.00 | 67 | 1016.3 |
| 20260509203023 | 64 | 49 | 3.0 | 6.0 | 0.00 | 0.00 | 0.00 | 68 | 1016.4 |
| 20260509202520 | 64 | 40 | 3.0 | 6.0 | 0.00 | 0.00 | 0.00 | 68 | 1016.4 |
| 20260509202022 | 64 | 42 | 0.0 | 4.0 | 0.00 | 0.00 | 0.00 | 68 | 1016.4 |
| 20260509201521 | 64 | 19 | 3.0 | 4.0 | 0.00 | 0.00 | 0.00 | 68 | 1016.4 |
| 20260509201021 | 65 | 14 | 3.0 | 5.0 | 0.00 | 0.00 | 0.00 | 67 | 1016.4 |
| 20260509200522 | 65 | 21 | 2.0 | 6.0 | 0.00 | 0.00 | 0.00 | 67 | 1016.4 |
| 20260509200022 | 65 | 61 | 3.0 | 8.0 | 0.00 | 0.00 | 0.00 | 67 | 1016.4 |
| 20260509195621 | 65 | 56 | 4.0 | 8.0 | 0.00 | 0.00 | 0.00 | 68 | 1016.4 |
| 20260509195018 | 66 | 16 | 3.0 | 5.0 | 0.00 | 0.00 | 0.00 | 67 | 1016.3 |
| 20260509194523 | 67 | 321 | 1.0 | 3.0 | 0.00 | 0.00 | 0.00 | 67 | 1016.1 |
| 20260509194018 | 67 | 234 | 1.0 | 2.0 | 0.00 | 0.00 | 0.00 | 67 | 1016.1 |
| 20260509193519 | 67 | 232 | 0.0 | 2.0 | 0.00 | 0.00 | 0.00 | 67 | 1016.1 |
| 20260509193019 | 67 | 202 | 0.0 | 2.0 | 0.00 | 0.00 | 0.00 | 67 | 1016.1 |
| 20260509192518 | 67 | 190 | 0.0 | 2.0 | 0.00 | 0.00 | 0.00 | 67 | 1016.2 |
| 20260509192017 | 67 | 189 | 0.0 | 0.0 | 0.00 | 0.00 | 0.00 | 67 | 1016.1 |
| 20260509191518 | 67 | 189 | 0.0 | 0.0 | 0.00 | 0.00 | 0.00 | 67 | 1016.2 |
| 20260509191017 | 67 | 189 | 0.0 | 0.0 | 0.00 | 0.00 | 0.00 | 67 | 1016.2 |
| 20260509190517 | 67 | 189 | 0.0 | 2.0 | 0.00 | 0.00 | 0.00 | 67 | 1016.3 |
| 20260509190019 | 67 | 189 | 0.0 | 2.0 | 0.00 | 0.00 | 0.00 | 67 | 1016.2 |
| 20260509185517 | 67 | 191 | 1.0 | 2.0 | 0.00 | 0.00 | 0.00 | 67 | 1016.1 |
| 20260509185017 | 67 | 191 | 1.0 | 3.0 | 0.00 | 0.00 | 0.00 | 67 | 1016.2 |
| 20260509184517 | 67 | 191 | 0.0 | 3.0 | 0.00 | 0.00 | 0.00 | 67 | 1016.2 |
| 20260509184016 | 67 | 191 | 1.0 | 6.0 | 0.00 | 0.00 | 0.00 | 66 | 1016.2 |
| 20260509183517 | 67 | 192 | 2.0 | 7.0 | 0.00 | 0.00 | 0.00 | 66 | 1016.1 |
| 20260509183023 | 68 | 180 | 2.0 | 5.0 | 0.00 | 0.00 | 0.00 | 66 | 1016.0 |
| 20260509182515 | 68 | 259 | 3.0 | 7.0 | 0.00 | 0.00 | 0.00 | 65 | 1016.1 |
| 20260509182015 | 68 | 238 | 4.0 | 7.0 | 0.00 | 0.00 | 0.00 | 65 | 1016.0 |
| 20260509181515 | 68 | 245 | 3.0 | 7.0 | 0.00 | 0.00 | 0.00 | 65 | 1016.0 |
| 20260509181015 | 68 | 259 | 4.0 | 7.0 | 0.00 | 0.00 | 0.00 | 65 | 1015.9 |
| 20260509180518 | 68 | 263 | 4.0 | 9.0 | 0.00 | 0.00 | 0.00 | 64 | 1015.8 |
| 20260509180015 | 68 | 269 | 6.0 | 9.0 | 0.00 | 0.00 | 0.00 | 64 | 1015.7 |
| 20260509175514 | 68 | 259 | 5.0 | 8.0 | 0.00 | 0.00 | 0.00 | 63 | 1015.6 |
| 20260509175014 | 68 | 271 | 5.0 | 8.0 | 0.00 | 0.00 | 0.00 | 63 | 1015.5 |
| 20260509174515 | 68 | 257 | 5.0 | 9.0 | 0.00 | 0.00 | 0.00 | 63 | 1015.5 |
| 20260509174015 | 68 | 277 | 6.0 | 11.0 | 0.00 | 0.00 | 0.00 | 63 | 1015.4 |
| 20260509173514 | 68 | 284 | 7.0 | 11.0 | 0.00 | 0.00 | 0.00 | 62 | 1015.4 |
| 20260509173022 | 68 | 269 | 5.0 | 10.0 | 0.00 | 0.00 | 0.00 | 62 | 1015.3 |
| 20260509172513 | 68 | 258 | 6.0 | 10.0 | 0.00 | 0.00 | 0.00 | 61 | 1015.2 |
| 20260509172013 | 68 | 264 | 7.0 | 12.0 | 0.00 | 0.00 | 0.00 | 60 | 1015.2 |
| 20260509171513 | 69 | 240 | 8.0 | 12.0 | 0.00 | 0.00 | 0.00 | 60 | 1015.2 |
| 20260509171013 | 69 | 247 | 8.0 | 12.0 | 0.00 | 0.00 | 0.00 | 60 | 1015.2 |
| 20260509170512 | 69 | 285 | 7.0 | 12.0 | 0.00 | 0.00 | 0.00 | 59 | 1015.2 |
| 20260509170013 | 69 | 259 | 7.0 | 12.0 | 0.00 | 0.00 | 0.00 | 58 | 1015.3 |
| 20260509165512 | 69 | 268 | 8.0 | 11.0 | 0.00 | 0.00 | 0.00 | 57 | 1015.3 |
| 20260509165014 | 69 | 254 | 7.0 | 12.0 | 0.00 | 0.00 | 0.00 | 58 | 1015.3 |
| 20260509164512 | 69 | 259 | 8.0 | 14.0 | 0.00 | 0.00 | 0.00 | 57 | 1015.0 |
| 20260509164011 | 70 | 264 | 9.0 | 14.0 | 0.00 | 0.00 | 0.00 | 56 | 1015.0 |
| 20260509163515 | 70 | 263 | 10.0 | 14.0 | 0.00 | 0.00 | 0.00 | 56 | 1015.2 |
| 20260509163011 | 70 | 264 | 8.0 | 14.0 | 0.00 | 0.00 | 0.00 | 55 | 1015.2 |
| 20260509162511 | 70 | 270 | 8.0 | 13.0 | 0.00 | 0.00 | 0.00 | 54 | 1015.2 |
| 20260509162013 | 70 | 247 | 8.0 | 13.0 | 0.00 | 0.00 | 0.00 | 53 | 1015.1 |
| 20260509161511 | 71 | 261 | 8.0 | 13.0 | 0.00 | 0.00 | 0.00 | 53 | 1015.1 |
| 20260509161010 | 71 | 248 | 9.0 | 14.0 | 0.00 | 0.00 | 0.00 | 52 | 1015.0 |
| 20260509160513 | 71 | 261 | 11.0 | 14.0 | 0.00 | 0.00 | 0.00 | 52 | 1015.1 |
| 20260509160010 | 71 | 238 | 10.0 | 14.0 | 0.00 | 0.00 | 0.00 | 51 | 1015.0 |
| 20260509155507 | 72 | 255 | 9.0 | 13.0 | 0.00 | 0.00 | 0.00 | 51 | 1014.8 |
| 20260509155007 | 72 | 262 | 10.0 | 13.0 | 0.00 | 0.00 | 0.00 | 50 | 1014.8 |
| 20260509154505 | 72 | 275 | 9.0 | 16.0 | 0.00 | 0.00 | 0.00 | 50 | 1014.9 |
| 20260509154007 | 72 | 283 | 12.0 | 16.0 | 0.00 | 0.00 | 0.00 | 49 | 1015.1 |
| 20260509153501 | 73 | 252 | 8.0 | 15.0 | 0.00 | 0.00 | 0.00 | 48 | 1014.9 |
| 20260509153001 | 72 | 293 | 11.0 | 16.0 | 0.00 | 0.00 | 0.00 | 47 | 1014.9 |
| 20260509152600 | 73 | 262 | 10.0 | 17.0 | 0.00 | 0.00 | 0.00 | 47 | 1014.8 |
| 20260509152059 | 73 | 264 | 12.0 | 17.0 | 0.00 | 0.00 | 0.00 | 46 | 1014.8 |
| 20260509151559 | 73 | 244 | 9.0 | 15.0 | 0.00 | 0.00 | 0.00 | 45 | 1014.8 |
| 20260509151058 | 74 | 260 | 9.0 | 15.0 | 0.00 | 0.00 | 0.00 | 44 | 1014.8 |
| 20260509150557 | 74 | 234 | 8.0 | 15.0 | 0.00 | 0.00 | 0.00 | 40 | 1014.7 |
| 20260509150056 | 74 | 271 | 9.0 | 14.0 | 0.00 | 0.00 | 0.00 | 42 | 1014.8 |
| 20260509145555 | 75 | 232 | 7.0 | 13.0 | 0.00 | 0.00 | 0.00 | 40 | 1014.8 |
| 20260509145055 | 74 | 241 | 9.0 | 14.0 | 0.00 | 0.00 | 0.00 | 41 | 1014.8 |
| 20260509144554 | 75 | 251 | 10.0 | 14.0 | 0.00 | 0.00 | 0.00 | 41 | 1014.9 |
| 20260509144054 | 75 | 251 | 9.0 | 13.0 | 0.00 | 0.00 | 0.00 | 39 | 1014.9 |
| 20260509143553 | 75 | 219 | 8.0 | 13.0 | 0.00 | 0.00 | 0.00 | 38 | 1014.9 |
| 20260509143053 | 75 | 243 | 7.0 | 13.0 | 0.00 | 0.00 | 0.00 | 38 | 1014.8 |
| 20260509142552 | 74 | 233 | 9.0 | 16.0 | 0.00 | 0.00 | 0.00 | 39 | 1014.9 |
| 20260509142051 | 75 | 207 | 8.0 | 15.0 | 0.00 | 0.00 | 0.00 | 37 | 1014.8 |
| 20260509141554 | 75 | 255 | 10.0 | 15.0 | 0.00 | 0.00 | 0.00 | 37 | 1014.9 |
| 20260509141050 | 76 | 259 | 9.0 | 14.0 | 0.00 | 0.00 | 0.00 | 36 | 1015.0 |
| 20260509140548 | 76 | 225 | 7.0 | 14.0 | 0.00 | 0.00 | 0.00 | 36 | 1015.0 |
| 20260509140055 | 76 | 171 | 5.0 | 14.0 | 0.00 | 0.00 | 0.00 | 35 | 1015.0 |
| 20260509135547 | 75 | 221 | 10.0 | 19.0 | 0.00 | 0.00 | 0.00 | 37 | 1014.9 |
| 20260509135046 | 76 | 252 | 11.0 | 17.0 | 0.00 | 0.00 | 0.00 | 37 | 1015.0 |
| 20260509134648 | 76 | 243 | 8.0 | 14.0 | 0.00 | 0.00 | 0.00 | 37 | 1015.0 |
| 20260509134044 | 76 | 195 | 5.0 | 14.0 | 0.00 | 0.00 | 0.00 | 37 | 1015.1 |
| 20260509133543 | 75 | 270 | 11.0 | 16.0 | 0.00 | 0.00 | 0.00 | 37 | 1015.2 |
| 20260509133042 | 75 | 260 | 11.0 | 16.0 | 0.00 | 0.00 | 0.00 | 38 | 1015.1 |
| 20260509132545 | 76 | 270 | 11.0 | 15.0 | 0.00 | 0.00 | 0.00 | 37 | 1015.2 |
| 20260509132043 | 76 | 202 | 7.0 | 13.0 | 0.00 | 0.00 | 0.00 | 37 | 1015.1 |
| 20260509131540 | 76 | 218 | 8.0 | 16.0 | 0.00 | 0.00 | 0.00 | 37 | 1015.2 |
| 20260509131039 | 76 | 165 | 6.0 | 16.0 | 0.00 | 0.00 | 0.00 | 39 | 1015.2 |
| 20260509130540 | 76 | 234 | 10.0 | 17.0 | 0.00 | 0.00 | 0.00 | 39 | 1015.3 |
| 20260509130038 | 76 | 218 | 11.0 | 17.0 | 0.00 | 0.00 | 0.00 | 38 | 1015.3 |
| 20260509125536 | 76 | 249 | 10.0 | 14.0 | 0.00 | 0.00 | 0.00 | 38 | 1015.4 |
| 20260509125038 | 76 | 205 | 7.0 | 16.0 | 0.00 | 0.00 | 0.00 | 38 | 1015.4 |
| 20260509124536 | 76 | 267 | 11.0 | 17.0 | 0.00 | 0.00 | 0.00 | 39 | 1015.6 |
| 20260509124035 | 77 | 252 | 8.0 | 18.0 | 0.00 | 0.00 | 0.00 | 38 | 1015.6 |
| 20260509123537 | 76 | 180 | 9.0 | 18.0 | 0.00 | 0.00 | 0.00 | 38 | 1015.6 |
| 20260509123034 | 76 | 219 | 6.0 | 14.0 | 0.00 | 0.00 | 0.00 | 39 | 1015.7 |
| 20260509122532 | 76 | 252 | 9.0 | 15.0 | 0.00 | 0.00 | 0.00 | 39 | 1015.6 |
| 20260509122032 | 76 | 217 | 11.0 | 16.0 | 0.00 | 0.00 | 0.00 | 38 | 1015.7 |
| 20260509121536 | 76 | 234 | 10.0 | 18.0 | 0.00 | 0.00 | 0.00 | 39 | 1015.7 |
| 20260509121031 | 75 | 259 | 13.0 | 18.0 | 0.00 | 0.00 | 0.00 | 39 | 1015.7 |
| 20260509120531 | 76 | 225 | 10.0 | 21.0 | 0.00 | 0.00 | 0.00 | 39 | 1015.7 |
| 20260509120030 | 76 | 257 | 10.0 | 20.0 | 0.00 | 0.00 | 0.00 | 39 | 1015.6 |
| 20260509115528 | 76 | 223 | 11.0 | 20.0 | 0.00 | 0.00 | 0.00 | 41 | 1015.6 |
| 20260509115028 | 75 | 278 | 14.0 | 20.0 | 0.00 | 0.00 | 0.00 | 41 | 1015.6 |
| 20260509114529 | 75 | 238 | 13.0 | 20.0 | 0.00 | 0.00 | 0.00 | 42 | 1015.6 |
| 20260509114028 | 76 | 224 | 11.0 | 21.0 | 0.00 | 0.00 | 0.00 | 42 | 1015.6 |
| 20260509113527 | 75 | 210 | 14.0 | 21.0 | 0.00 | 0.00 | 0.00 | 41 | 1015.8 |
| 20260509113028 | 75 | 174 | 9.0 | 18.0 | 0.00 | 0.00 | 0.00 | 41 | 1015.8 |
| 20260509112525 | 75 | 236 | 11.0 | 17.0 | 0.00 | 0.00 | 0.00 | 43 | 1015.8 |
| 20260509112126 | 75 | 228 | 13.0 | 20.0 | 0.00 | 0.00 | 0.00 | 41 | 1016.0 |
| 20260509111524 | 75 | 221 | 11.0 | 20.0 | 0.00 | 0.00 | 0.00 | 41 | 1015.9 |
| 20260509111025 | 75 | 221 | 12.0 | 20.0 | 0.00 | 0.00 | 0.00 | 42 | 1016.0 |
| 20260509110524 | 75 | 289 | 13.0 | 18.0 | 0.00 | 0.00 | 0.00 | 42 | 1015.9 |
| 20260509110025 | 75 | 271 | 10.0 | 17.0 | 0.00 | 0.00 | 0.00 | 43 | 1016.0 |
| 20260509105526 | 75 | 223 | 7.0 | 19.0 | 0.00 | 0.00 | 0.00 | 43 | 1016.0 |
| 20260509105024 | 75 | 208 | 11.0 | 19.0 | 0.00 | 0.00 | 0.00 | 43 | 1016.0 |
| 20260509104534 | 75 | 238 | 10.0 | 16.0 | 0.00 | 0.00 | 0.00 | 43 | 1016.0 |
| 20260509104021 | 75 | 203 | 10.0 | 16.0 | 0.00 | 0.00 | 0.00 | 43 | 1016.0 |
| 20260509103521 | 75 | 211 | 11.0 | 17.0 | 0.00 | 0.00 | 0.00 | 43 | 1016.0 |
| 20260509103021 | 75 | 205 | 8.0 | 23.0 | 0.00 | 0.00 | 0.00 | 43 | 1016.0 |
| 20260509102520 | 75 | 192 | 12.0 | 23.0 | 0.00 | 0.00 | 0.00 | 40 | 1016.0 |
| 20260509102019 | 75 | 254 | 11.0 | 18.0 | 0.00 | 0.00 | 0.00 | 40 | 1016.0 |
| 20260509101519 | 76 | 219 | 10.0 | 18.0 | 0.00 | 0.00 | 0.00 | 37 | 1016.1 |
| 20260509101021 | 76 | 217 | 9.0 | 17.0 | 0.00 | 0.00 | 0.00 | 38 | 1016.1 |
| 20260509100517 | 75 | 189 | 11.0 | 17.0 | 0.00 | 0.00 | 0.00 | 37 | 1016.2 |
| 20260509100017 | 76 | 215 | 11.0 | 19.0 | 0.00 | 0.00 | 0.00 | 37 | 1016.2 |
| 20260509095516 | 76 | 194 | 10.0 | 19.0 | 0.00 | 0.00 | 0.00 | 38 | 1016.3 |
| 20260509095014 | 75 | 216 | 11.0 | 19.0 | 0.00 | 0.00 | 0.00 | 39 | 1016.4 |
| 20260509094513 | 75 | 252 | 13.0 | 17.0 | 0.00 | 0.00 | 0.00 | 39 | 1016.4 |
| 20260509094012 | 75 | 265 | 11.0 | 15.0 | 0.00 | 0.00 | 0.00 | 40 | 1016.5 |
| 20260509093515 | 76 | 237 | 9.0 | 14.0 | 0.00 | 0.00 | 0.00 | 40 | 1016.6 |
| 20260509093010 | 75 | 221 | 5.0 | 14.0 | 0.00 | 0.00 | 0.00 | 41 | 1016.5 |
| 20260509092508 | 75 | 237 | 8.0 | 15.0 | 0.00 | 0.00 | 0.00 | 43 | 1016.5 |
| 20260509092008 | 75 | 269 | 5.0 | 15.0 | 0.00 | 0.00 | 0.00 | 45 | 1016.5 |
| 20260509091507 | 75 | 254 | 5.0 | 13.0 | 0.00 | 0.00 | 0.00 | 44 | 1016.4 |
| 20260509091008 | 75 | 231 | 7.0 | 14.0 | 0.00 | 0.00 | 0.00 | 44 | 1016.6 |
| 20260509090507 | 74 | 257 | 10.0 | 14.0 | 0.00 | 0.00 | 0.00 | 45 | 1016.6 |
| 20260509090006 | 75 | 246 | 6.0 | 12.0 | 0.00 | 0.00 | 0.00 | 43 | 1016.7 |
| 20260509085504 | 75 | 273 | 7.0 | 12.0 | 0.00 | 0.00 | 0.00 | 42 | 1016.7 |
| 20260509085003 | 75 | 268 | 9.0 | 13.0 | 0.00 | 0.00 | 0.00 | 41 | 1016.6 |
| 20260509084504 | 75 | 186 | 5.0 | 11.0 | 0.00 | 0.00 | 0.00 | 41 | 1016.6 |
| 20260509084001 | 75 | 215 | 4.0 | 13.0 | 0.00 | 0.00 | 0.00 | 41 | 1016.6 |
| 20260509083559 | 74 | 273 | 5.0 | 13.0 | 0.00 | 0.00 | 0.00 | 41 | 1016.7 |
| 20260509083106 | 73 | 243 | 8.0 | 11.0 | 0.00 | 0.00 | 0.00 | 42 | 1016.7 |
| 20260509082558 | 73 | 268 | 8.0 | 12.0 | 0.00 | 0.00 | 0.00 | 42 | 1016.8 |
| 20260509082057 | 73 | 182 | 6.0 | 12.0 | 0.00 | 0.00 | 0.00 | 43 | 1016.8 |
| 20260509081556 | 73 | 275 | 6.0 | 11.0 | 0.00 | 0.00 | 0.00 | 47 | 1016.8 |
| 20260509081055 | 73 | 236 | 5.0 | 10.0 | 0.00 | 0.00 | 0.00 | 50 | 1016.9 |
| 20260509080552 | 73 | 260 | 4.0 | 10.0 | 0.00 | 0.00 | 0.00 | 52 | 1016.8 |
| 20260509080057 | 72 | 240 | 6.0 | 10.0 | 0.00 | 0.00 | 0.00 | 53 | 1016.7 |
| 20260509075552 | 72 | 219 | 4.0 | 11.0 | 0.00 | 0.00 | 0.00 | 51 | 1016.7 |
| 20260509075051 | 72 | 217 | 5.0 | 11.0 | 0.00 | 0.00 | 0.00 | 50 | 1016.7 |
| 20260509074549 | 71 | 252 | 6.0 | 10.0 | 0.00 | 0.00 | 0.00 | 54 | 1016.7 |
| 20260509074049 | 71 | 207 | 3.0 | 8.0 | 0.00 | 0.00 | 0.00 | 53 | 1016.8 |
| 20260509073547 | 71 | 277 | 5.0 | 8.0 | 0.00 | 0.00 | 0.00 | 54 | 1016.7 |
| 20260509073046 | 71 | 244 | 3.0 | 7.0 | 0.00 | 0.00 | 0.00 | 54 | 1016.8 |
| 20260509072548 | 70 | 200 | 2.0 | 8.0 | 0.00 | 0.00 | 0.00 | 55 | 1016.9 |
| 20260509072040 | 70 | 230 | 2.0 | 8.0 | 0.00 | 0.00 | 0.00 | 54 | 1016.8 |
| 20260509071538 | 70 | 255 | 3.0 | 6.0 | 0.00 | 0.00 | 0.00 | 56 | 1016.8 |
| 20260509071037 | 70 | 292 | 3.0 | 5.0 | 0.00 | 0.00 | 0.00 | 56 | 1016.9 |
| 20260509070537 | 70 | 258 | 1.0 | 6.0 | 0.00 | 0.00 | 0.00 | 56 | 1016.8 |
| 20260509070040 | 70 | 269 | 3.0 | 6.0 | 0.00 | 0.00 | 0.00 | 57 | 1016.9 |
| 20260509065536 | 69 | 276 | 2.0 | 4.0 | 0.00 | 0.00 | 0.00 | 58 | 1016.8 |
| 20260509065035 | 70 | 315 | 0.0 | 3.0 | 0.00 | 0.00 | 0.00 | 59 | 1016.9 |
| 20260509064535 | 69 | 317 | 1.0 | 3.0 | 0.00 | 0.00 | 0.00 | 59 | 1016.8 |
| 20260509064033 | 70 | 331 | 1.0 | 3.0 | 0.00 | 0.00 | 0.00 | 62 | 1016.9 |
| 20260509063534 | 69 | 318 | 1.0 | 4.0 | 0.00 | 0.00 | 0.00 | 62 | 1016.9 |
| 20260509063031 | 67 | 266 | 0.0 | 6.0 | 0.00 | 0.00 | 0.00 | 66 | 1016.7 |
| 20260509062530 | 67 | 277 | 2.0 | 6.0 | 0.00 | 0.00 | 0.00 | 67 | 1016.8 |
| 20260509062032 | 67 | 282 | 1.0 | 4.0 | 0.00 | 0.00 | 0.00 | 67 | 1016.8 |
| 20260509061529 | 66 | 272 | 1.0 | 4.0 | 0.00 | 0.00 | 0.00 | 68 | 1016.8 |
| 20260509061031 | 66 | 248 | 1.0 | 4.0 | 0.00 | 0.00 | 0.00 | 69 | 1016.9 |
| 20260509060528 | 66 | 319 | 2.0 | 4.0 | 0.00 | 0.00 | 0.00 | 69 | 1016.8 |
| 20260509060028 | 66 | 329 | 1.0 | 5.0 | 0.00 | 0.00 | 0.00 | 70 | 1016.8 |
| 20260509055529 | 65 | 355 | 1.0 | 4.0 | 0.00 | 0.00 | 0.00 | 70 | 1016.8 |
| 20260509055026 | 65 | 313 | 1.0 | 3.0 | 0.00 | 0.00 | 0.00 | 71 | 1016.7 |
| 20260509054529 | 65 | 350 | 2.0 | 3.0 | 0.00 | 0.00 | 0.00 | 71 | 1016.8 |
| 20260509054025 | 64 | 337 | 1.0 | 3.0 | 0.00 | 0.00 | 0.00 | 71 | 1016.8 |
| 20260509053525 | 64 | 330 | 2.0 | 3.0 | 0.00 | 0.00 | 0.00 | 70 | 1016.7 |
| 20260509053035 | 64 | 294 | 1.0 | 3.0 | 0.00 | 0.00 | 0.00 | 70 | 1016.7 |
| 20260509052525 | 64 | 182 | 1.0 | 3.0 | 0.00 | 0.00 | 0.00 | 71 | 1016.7 |
| 20260509052023 | 64 | 201 | 0.0 | 2.0 | 0.00 | 0.00 | 0.00 | 71 | 1016.8 |
| 20260509051534 | 64 | 250 | 0.0 | 2.0 | 0.00 | 0.00 | 0.00 | 69 | 1016.8 |
| 20260509051021 | 64 | 213 | 1.0 | 3.0 | 0.00 | 0.00 | 0.00 | 69 | 1016.9 |
| 20260509050520 | 64 | 211 | 0.0 | 3.0 | 0.00 | 0.00 | 0.00 | 69 | 1016.9 |
| 20260509050020 | 63 | 213 | 0.0 | 2.0 | 0.00 | 0.00 | 0.00 | 69 | 1017.0 |
| 20260509045519 | 63 | 255 | 0.0 | 2.0 | 0.00 | 0.00 | 0.00 | 70 | 1017.0 |
| 20260509045020 | 63 | 264 | 0.0 | 4.0 | 0.00 | 0.00 | 0.00 | 70 | 1017.0 |
| 20260509044518 | 63 | 269 | 0.0 | 4.0 | 0.00 | 0.00 | 0.00 | 70 | 1017.0 |
| 20260509044017 | 62 | 351 | 0.0 | 3.0 | 0.00 | 0.00 | 0.00 | 70 | 1017.0 |
| 20260509043519 | 62 | 355 | 1.0 | 3.0 | 0.00 | 0.00 | 0.00 | 70 | 1017.0 |
| 20260509043017 | 63 | 333 | 1.0 | 3.0 | 0.00 | 0.00 | 0.00 | 69 | 1016.9 |
| 20260509042517 | 63 | 107 | 0.0 | 2.0 | 0.00 | 0.00 | 0.00 | 69 | 1016.9 |
| 20260509042018 | 62 | 103 | 0.0 | 3.0 | 0.00 | 0.00 | 0.00 | 70 | 1016.9 |
| 20260509041517 | 62 | 96 | 0.0 | 4.0 | 0.00 | 0.00 | 0.00 | 70 | 1016.9 |
| 20260509041016 | 61 | 81 | 2.0 | 5.0 | 0.00 | 0.00 | 0.00 | 71 | 1016.9 |
| 20260509040516 | 61 | 46 | 2.0 | 5.0 | 0.00 | 0.00 | 0.00 | 72 | 1017.0 |
| 20260509040016 | 61 | 42 | 3.0 | 5.0 | 0.00 | 0.00 | 0.00 | 72 | 1017.0 |
| 20260509035515 | 61 | 340 | 0.0 | 3.0 | 0.00 | 0.00 | 0.00 | 71 | 1016.9 |
| 20260509035013 | 62 | 75 | 0.0 | 4.0 | 0.00 | 0.00 | 0.00 | 71 | 1016.6 |
| 20260509034512 | 62 | 71 | 0.0 | 4.0 | 0.00 | 0.00 | 0.00 | 70 | 1016.6 |
| 20260509034011 | 61 | 43 | 2.0 | 6.0 | 0.00 | 0.00 | 0.00 | 71 | 1016.6 |
| 20260509033509 | 61 | 71 | 3.0 | 6.0 | 0.00 | 0.00 | 0.00 | 72 | 1016.6 |
| 20260509033009 | 61 | 67 | 3.0 | 5.0 | 0.00 | 0.00 | 0.00 | 72 | 1016.7 |
| 20260509032509 | 62 | 15 | 1.0 | 4.0 | 0.00 | 0.00 | 0.00 | 72 | 1016.6 |
| 20260509032009 | 61 | 147 | 1.0 | 3.0 | 0.00 | 0.00 | 0.00 | 72 | 1016.6 |
| 20260509031507 | 61 | 91 | 1.0 | 6.0 | 0.00 | 0.00 | 0.00 | 73 | 1016.5 |
| 20260509031009 | 60 | 95 | 3.0 | 6.0 | 0.00 | 0.00 | 0.00 | 74 | 1016.6 |
| 20260509030507 | 60 | 81 | 3.0 | 6.0 | 0.00 | 0.00 | 0.00 | 75 | 1016.6 |
| 20260509030008 | 59 | 46 | 3.0 | 6.0 | 0.00 | 0.00 | 0.00 | 76 | 1016.7 |
| 20260509025508 | 60 | 34 | 3.0 | 6.0 | 0.00 | 0.00 | 0.00 | 74 | 1016.7 |
| 20260509025006 | 61 | 10 | 4.0 | 6.0 | 0.00 | 0.00 | 0.00 | 74 | 1016.6 |
| 20260509024506 | 61 | 92 | 1.0 | 4.0 | 0.00 | 0.00 | 0.00 | 74 | 1016.3 |
| 20260509024005 | 60 | 82 | 1.0 | 5.0 | 0.00 | 0.00 | 0.00 | 75 | 1016.5 |
| 20260509023506 | 60 | 71 | 1.0 | 9.0 | 0.00 | 0.00 | 0.00 | 76 | 1016.5 |
| 20260509023004 | 59 | 49 | 6.0 | 9.0 | 0.00 | 0.00 | 0.00 | 77 | 1016.4 |
| 20260509022503 | 59 | 355 | 4.0 | 8.0 | 0.00 | 0.00 | 0.00 | 77 | 1016.5 |
| 20260509022003 | 59 | 28 | 6.0 | 8.0 | 0.00 | 0.00 | 0.00 | 76 | 1016.5 |
| 20260509021502 | 59 | 55 | 1.0 | 6.0 | 0.00 | 0.00 | 0.00 | 77 | 1016.5 |
| 20260509021003 | 59 | 42 | 5.0 | 6.0 | 0.00 | 0.00 | 0.00 | 77 | 1016.7 |
| 20260509020601 | 60 | 34 | 3.0 | 6.0 | 0.00 | 0.00 | 0.00 | 76 | 1016.6 |
| 20260509020059 | 60 | 17 | 3.0 | 4.0 | 0.00 | 0.00 | 0.00 | 75 | 1016.6 |
| 20260509015559 | 61 | 40 | 1.0 | 3.0 | 0.00 | 0.00 | 0.00 | 75 | 1016.4 |
| 20260509015058 | 61 | 39 | 1.0 | 3.0 | 0.00 | 0.00 | 0.00 | 75 | 1016.6 |
| 20260509014556 | 61 | 54 | 0.0 | 4.0 | 0.00 | 0.00 | 0.00 | 75 | 1016.8 |
| 20260509014056 | 61 | 45 | 2.0 | 4.0 | 0.00 | 0.00 | 0.00 | 74 | 1016.8 |
| 20260509013557 | 62 | 49 | 1.0 | 4.0 | 0.00 | 0.00 | 0.00 | 73 | 1016.8 |
| 20260509013156 | 62 | 63 | 1.0 | 5.0 | 0.00 | 0.00 | 0.00 | 74 | 1017.0 |
| 20260509012554 | 62 | 67 | 3.0 | 6.0 | 0.00 | 0.00 | 0.00 | 74 | 1017.0 |
| 20260509012054 | 62 | 78 | 2.0 | 4.0 | 0.00 | 0.00 | 0.00 | 75 | 1017.2 |
| 20260509011553 | 61 | 72 | 3.0 | 5.0 | 0.00 | 0.00 | 0.00 | 75 | 1017.3 |
| 20260509011053 | 61 | 56 | 3.0 | 5.0 | 0.00 | 0.00 | 0.00 | 76 | 1017.3 |
| 20260509010556 | 61 | 44 | 2.0 | 4.0 | 0.00 | 0.00 | 0.00 | 76 | 1017.5 |
| 20260509010051 | 61 | 44 | 2.0 | 4.0 | 0.00 | 0.00 | 0.00 | 75 | 1017.5 |
| 20260509005550 | 62 | 52 | 0.0 | 3.0 | 0.00 | 0.00 | 0.00 | 74 | 1017.6 |
| 20260509005049 | 62 | 61 | 0.0 | 0.0 | 0.00 | 0.00 | 0.00 | 74 | 1017.6 |
| 20260509004547 | 62 | 60 | 0.0 | 2.0 | 0.00 | 0.00 | 0.00 | 74 | 1017.6 |
| 20260509004046 | 62 | 59 | 0.0 | 3.0 | 0.00 | 0.00 | 0.00 | 73 | 1017.6 |
| 20260509003546 | 62 | 59 | 1.0 | 3.0 | 0.00 | 0.00 | 0.00 | 73 | 1017.7 |
| 20260509003046 | 63 | 60 | 0.0 | 4.0 | 0.00 | 0.00 | 0.00 | 73 | 1017.8 |
| 20260509002545 | 63 | 63 | 1.0 | 4.0 | 0.00 | 0.00 | 0.00 | 73 | 1017.7 |
| 20260509002044 | 63 | 51 | 0.0 | 1.0 | 0.00 | 0.00 | 0.00 | 73 | 1017.9 |
| 20260509001545 | 62 | 48 | 0.0 | 1.0 | 0.00 | 0.00 | 0.00 | 73 | 1018.1 |
| 20260509001042 | 62 | 48 | 0.0 | 3.0 | 0.00 | 0.00 | 0.00 | 74 | 1018.2 |
| 20260509000546 | 62 | 48 | 1.0 | 4.0 | 0.00 | 0.00 | 0.00 | 74 | 1018.0 |
| 20260509000041 | 63 | 45 | 2.0 | 4.0 | 0.00 | 0.00 | 0.00 | 73 | 1018.2 |
| 20260508235539 | 63 | 49 | 2.0 | 4.0 | 0.00 | 0.00 | 0.00 | 72 | 1018.1 |
| 20260508235041 | 64 | 64 | 0.0 | 0.0 | 0.00 | 0.00 | 0.00 | 71 | 1018.1 |
| 20260508234538 | 64 | 67 | 0.0 | 0.0 | 0.00 | 0.00 | 0.00 | 71 | 1018.1 |
| 20260508234041 | 64 | 59 | 0.0 | 0.0 | 0.00 | 0.00 | 0.00 | 71 | 1018.2 |
| 20260508233537 | 64 | 59 | 0.0 | 0.0 | 0.00 | 0.00 | 0.00 | 71 | 1018.2 |
| 20260508233047 | 64 | 58 | 0.0 | 0.0 | 0.00 | 0.00 | 0.00 | 71 | 1018.3 |
| 20260508232535 | 64 | 57 | 0.0 | 0.0 | 0.00 | 0.00 | 0.00 | 70 | 1018.5 |
| 20260508232034 | 64 | 57 | 0.0 | 1.0 | 0.00 | 0.00 | 0.00 | 70 | 1018.6 |
| 20260508231537 | 64 | 57 | 0.0 | 4.0 | 0.00 | 0.00 | 0.00 | 70 | 1018.5 |
| 20260508231036 | 64 | 55 | 0.0 | 6.0 | 0.00 | 0.00 | 0.00 | 70 | 1018.6 |
| 20260508230533 | 65 | 37 | 3.0 | 6.0 | 0.00 | 0.00 | 0.00 | 69 | 1018.7 |
| 20260508230032 | 65 | 259 | 1.0 | 4.0 | 0.00 | 0.00 | 0.00 | 69 | 1018.7 |
| 20260508225533 | 65 | 259 | 1.0 | 4.0 | 0.00 | 0.00 | 0.00 | 69 | 1018.7 |
| 20260508225031 | 65 | 245 | 3.0 | 5.0 | 0.00 | 0.00 | 0.00 | 68 | 1018.7 |
| 20260508224530 | 65 | 241 | 3.0 | 5.0 | 0.00 | 0.00 | 0.00 | 69 | 1018.7 |
| 20260508224030 | 65 | 242 | 3.0 | 4.0 | 0.00 | 0.00 | 0.00 | 68 | 1018.7 |
| 20260508223529 | 65 | 246 | 2.0 | 4.0 | 0.00 | 0.00 | 0.00 | 68 | 1018.7 |
| 20260508223029 | 65 | 315 | 2.0 | 4.0 | 0.00 | 0.00 | 0.00 | 68 | 1018.8 |
| 20260508222529 | 65 | 329 | 2.0 | 4.0 | 0.00 | 0.00 | 0.00 | 67 | 1018.8 |
| 20260508222028 | 66 | 316 | 3.0 | 4.0 | 0.00 | 0.00 | 0.00 | 67 | 1018.9 |
| 20260508221527 | 66 | 267 | 2.0 | 6.0 | 0.00 | 0.00 | 0.00 | 66 | 1018.8 |
| 20260508221029 | 66 | 237 | 3.0 | 6.0 | 0.00 | 0.00 | 0.00 | 65 | 1018.7 |
| 20260508220528 | 66 | 261 | 4.0 | 6.0 | 0.00 | 0.00 | 0.00 | 65 | 1018.8 |
| 20260508220026 | 66 | 252 | 4.0 | 5.0 | 0.00 | 0.00 | 0.00 | 65 | 1018.9 |
| 20260508215525 | 66 | 254 | 2.0 | 4.0 | 0.00 | 0.00 | 0.00 | 64 | 1018.9 |
| 20260508215024 | 66 | 306 | 2.0 | 5.0 | 0.00 | 0.00 | 0.00 | 65 | 1018.9 |
| 20260508214527 | 66 | 303 | 2.0 | 4.0 | 0.00 | 0.00 | 0.00 | 63 | 1018.9 |
| 20260508214024 | 66 | 261 | 2.0 | 6.0 | 0.00 | 0.00 | 0.00 | 63 | 1018.8 |
| 20260508213523 | 66 | 263 | 2.0 | 8.0 | 0.00 | 0.00 | 0.00 | 63 | 1018.9 |
| 20260508213023 | 66 | 271 | 3.0 | 8.0 | 0.00 | 0.00 | 0.00 | 63 | 1018.9 |
| 20260508212522 | 66 | 249 | 4.0 | 7.0 | 0.00 | 0.00 | 0.00 | 62 | 1019.0 |
| 20260508212023 | 66 | 258 | 3.0 | 7.0 | 0.00 | 0.00 | 0.00 | 62 | 1018.9 |
| 20260508211529 | 66 | 276 | 3.0 | 7.0 | 0.00 | 0.00 | 0.00 | 61 | 1019.0 |
| 20260508211028 | 67 | 253 | 3.0 | 8.0 | 0.00 | 0.00 | 0.00 | 61 | 1018.9 |
| 20260508210519 | 67 | 253 | 3.0 | 10.0 | 0.00 | 0.00 | 0.00 | 60 | 1018.7 |
| 20260508210018 | 67 | 212 | 5.0 | 8.0 | 0.00 | 0.00 | 0.00 | 60 | 1018.6 |
| 20260508205517 | 67 | 215 | 4.0 | 9.0 | 0.00 | 0.00 | 0.00 | 60 | 1018.8 |